Location: Bandys
(35.4750°N, 81.0830°W)
Time: 14:52:52
(UTC-05:00)

Daily predictions for brighter satellites

Satellite Brightness Start Highest point End
(mag) Time Altitude Azimuth Time Altitude Azimuth Time Altitude Azimuth
Okean 1 Rocket 3.3 17:35:53 10° N 17:40:13 77° W 17:44:32 10° S
Cosmos 1536 2.8 17:36:59 10° N 17:41:02 64° E 17:45:03 10° SSE
Hubble Space Telescope 2.7 17:41:53 10° WSW 17:45:22 26° S 17:48:52 10° SE
COSMO-SKYMED 1 3.7 17:41:54 10° NE 17:45:28 24° E 17:49:00 10° SSE
Cosmos 1461 2.7 17:41:34 10° NNW 17:45:32 90° NE 17:49:29 10° SSE
Cosmos 1975 Rocket 3.0 17:42:49 10° S 17:47:07 81° E 17:51:27 10° N
Cosmos 1544 Rocket 4.4 17:43:35 10° NNE 17:47:29 29° ENE 17:51:23 10° SE
Cosmos 372 Rocket 4.1 17:42:44 10° SSW 17:47:59 86° WNW 17:53:16 10° NNE
MSX 4.2 17:43:20 10° SE 17:48:43 43° ENE 17:54:07 10° N
Meteor 1-11 Rocket 4.3 17:44:02 10° NNW 17:49:31 63° W 17:54:56 10° S
SMAP 3.0 17:45:22 10° SSE 17:49:58 66° ENE 17:54:35 10° N
USA 234 4.4 17:44:50 10° NNE 17:50:35 35° NNW 17:56:21 10° W
AQUARIUS 4.1 17:46:14 10° SSE 17:50:41 67° ENE 17:55:10 10° N
Okean 3 4.2 17:47:37 10° SSW 17:51:50 57° W 17:56:04 10° N
SJ-12 3.8 17:48:00 10° SSE 17:52:03 77° ENE 17:56:10 10° N
Cosmos 2263 Rocket 4.3 17:49:32 10° WSW 17:53:55 23° WNW 17:58:22 10° N
CZ-3B DEB 1.6 17:53:56 10° SW 17:56:56 82° SE 18:04:26 10° NE
Thor Agena Rocket 3.8 17:52:50 10° N 17:58:02 77° WNW 18:03:16 10° SSW
CZ-4 R/B 1.8 17:54:10 10° S 17:58:21 72° W 18:02:31 10° NNW
NOSS 3-1 (A) 4.3 17:51:10 10° NNW 17:58:59 82° WSW 18:07:24 10° SSE
Cosmos 1346 Rocket 4.4 17:59:31 10° SE 18:01:57 16° E 18:02:55 15° ENE
Cosmos 1536 Rocket 4.2 17:59:38 10° SSE 18:03:39 35° E 18:07:43 10° NNE
Cosmos 1269 Rocket 4.4 17:58:52 10° NNW 18:04:10 71° WSW 18:09:25 10° S
Cosmos 1812 3.0 18:03:44 10° SSE 18:07:24 44° E 18:11:06 10° NNE
YAOGAN 1 2.7 18:06:09 10° S 18:10:28 78° WSW 18:14:49 10° NNW
ATLAS 2AS CENTAUR R/B 3.3 18:03:29 10° NNW 18:11:05 43° NE 18:18:12 10° ESE
SL-8 Rocket 3.9 18:05:25 10° N 18:11:35 78° E 18:17:44 10° S
Cosmos 2251 Rocket 3.9 18:09:18 10° N 18:14:21 40° ENE 18:19:19 10° SE
EP 2 4.5 18:17:17 10° SSW 18:19:52 47° ESE 18:20:35 34° ENE
Cosmos 1844 Rocket 3.0 18:14:51 10° SSW 18:20:23 66° WNW 18:25:59 10° NNE
Cosmos 2366 rocket 4.0 18:14:46 10° N 18:21:06 67° E 18:27:22 10° SSE
Cosmos 1975 3.5 18:17:35 10° NNE 18:21:16 32° ENE 18:24:54 10° SE
Cosmos 2218 Rocket 3.9 18:15:10 10° N 18:21:30 77° E 18:27:41 10° S
OTV 4 0.3 18:19:12 10° WNW 18:22:12 78° N 18:23:24 32° E
Cosmos 1844 3.8 18:21:48 10° SSW 18:27:22 79° WNW 18:32:57 10° NNE
Cosmos 1959 Rocket 4.4 18:21:57 10° N 18:28:09 87° E 18:34:23 10° S
GEOS 3 Rocket 3.6 18:24:20 10° SE 18:29:18 54° NE 18:34:17 10° NNW
SL-27 R/B 2.4 18:27:36 10° N 18:31:16 67° ENE 18:34:52 10° SSE
SKYMED 2 3.5 18:29:18 10° NNE 18:33:40 88° W 18:37:59 10° SSW
DMSP B5D1-3 4.5 18:29:15 10° NNE 18:34:24 67° ESE 18:39:29 10° S
SL-8 R/B 3.6 18:32:04 10° SW 18:36:51 82° SE 18:39:04 32° ENE
Cosmos 1455 Rocket 3.0 18:33:01 10° N 18:37:26 87° ENE 18:41:51 10° S
ISS -1.4 18:34:46 10° W 18:37:28 23° NNW 18:38:49 18° N
BREEZE-M R/B 4.4 18:33:05 10° WSW 18:44:29 72° NW 18:47:38 27° NE
Cosmos 2278 Rocket 2.1 18:40:04 10° SSW 18:45:42 88° ESE 18:50:04 18° NNE
Meteor 1-13 Rocket 4.4 18:41:42 10° SSE 18:47:04 49° E 18:50:26 23° NNE
COSMOS 2406 4.3 18:41:57 10° NNW 18:47:25 48° WSW 18:52:54 10° S
Cosmos 1484 Rocket 3.5 18:50:02 10° S 18:53:43 51° W 18:57:24 10° NNW
Cosmos 1809 Rocket 4.3 18:47:38 10° N 18:53:46 66° E 18:59:50 10° SSE
OAO 1 4.4 18:58:09 10° W 19:03:39 83° S 19:04:57 54° E
Tiangong 1 3.2 19:05:22 10° SW 19:06:36 21° SSW 19:06:36 21° SSW
Nadezhda 3 Rocket 4.0 19:07:07 10° S 19:13:17 82° W 19:19:33 10° N
Cosmos 2082 Rocket 3.8 19:08:57 10° N 19:10:50 20° N 19:10:50 20° N
Hubble Space Telescope 3.4 19:24:12 10° SW 19:26:02 13° SSW 19:27:01 12° S
Meteor 2-4 Rocket 4.4 19:24:26 10° S 19:27:45 37° SSE 19:27:45 37° SSE
METEOR-M 4.5 19:30:53 10° S 19:36:10 64° W 19:41:28 10° NNW
ATLAS 2AS CENTAUR R/B 4.0 19:54:45 10° NW 20:02:01 41° WSW 20:08:46 10° S
FALCON 9 R/B 2.9 19:46:04 10° W 20:01:52 81° SW 20:01:52 81° SW
ATLAS 3B CENTAUR R/B 3.7 20:12:23 10° W 20:22:04 42° SW 20:22:04 42° SW
